Regional Weather Roundup
Issued by NWS

Home | Current Version | Previous Version | Graphics & Text | Print | Product List | Glossary On
Versions: 1 2 3 4 5 6 7 8 9 10 11 12 13 14 15 16 17 18 19 20 21 22 23 24 25 26 27 28 29 30 31 32 33 34 35 36 37 38 39 40 41 42 43 44 45 46 47 48 49 50
000
ASUS45 KTFX 031810
RWRMT
MONTANA REGIONAL WEATHER ROUNDUP
NATIONAL WEATHER SERVICE GREAT FALLS MT
1200 PM MDT MON AUG 03 2015

NOTE: "FAIR" INDICATES FEW OR NO CLOUDS BELOW 12000 FEET WITH NO
SIGNIFICANT WEATHER AND/OR OBSTRUCTIONS TO VISIBILITY.

MTZ001>007-043-031900-
WEST OF THE DIVIDE

CITY           SKY/WX    TMP DP  RH WIND       PRES   REMARKS
KALISPELL      CLEAR     85  37  18 NE7       29.85F SMOKE
MISSOULA       MOSUNNY   75  36  24 S7        29.89F
BUTTE          PTSUNNY   81  40  23 CALM      30.02F
MULLAN PASS    MOSUNNY   79  32  18 CALM      30.05F
DEER LODGE       N/A     82  48  30 CALM      29.99F
EUREKA           N/A     81  39  22 W5        29.85F
HAMILTON         N/A     77  45  31 E5        29.88F
LIBBY            N/A     81  32  17 CALM      29.83F
PLAINS           N/A     82  39  21 CALM      29.85F
RONAN            N/A     81  46  29 NW3       29.93S
THOMPSON FALLS   N/A     83  35  17 E5        29.87F
$$

MTZ008-052>055-031900-
SOUTHWEST MONTANA

CITY           SKY/WX    TMP DP  RH WIND       PRES   REMARKS
BOZEMAN        PTSUNNY   77  47  34 E3        29.98F
DILLON         MOSUNNY   74  43  32 NW3       30.01F
W YELLOWSTONE  CLOUDY    70  45  40 SW13G18   30.16S
THREE FORKS      N/A     78  47  33 E1        29.97F
TWIN BRIDGES     N/A     73  40  30 CALM      30.00F
$$

MTZ009-010-012-014-046-048-049-054-031900-
EAST SLOPES AND CENTRAL MONTANA

CITY           SKY/WX    TMP DP  RH WIND       PRES   REMARKS
CUT BANK       SUNNY     76  49  38 S12       29.93F
GREAT FALLS    MOSUNNY   85  46  25 NE9       29.91F
MALMSTROM AFB  MOSUNNY   82  46  27 NE7       29.91F
HELENA         MOSUNNY   81  46  29 N3        29.92F
CONRAD           N/A     80  53  39 CALM      29.96F
$$

MTZ011-013-016-021-045-047-050-051-031900-
NORTH CENTRAL MONTANA

CITY           SKY/WX    TMP DP  RH WIND       PRES   REMARKS
HAVRE          SUNNY     87  51  28 E14G21    29.88F
LEWISTOWN      SUNNY     83  53  35 E14       29.98F
CHINOOK          N/A     81  57  44 E13       29.91F
FORT BENTON      N/A     84  52  32 E9        29.89F
$$

MTZ017>020-022>027-061-062-031900-
NORTHEAST MONTANA

CITY           SKY/WX    TMP DP  RH WIND       PRES   REMARKS
GLASGOW        SUNNY     80  47  31 SE12      29.99F
JORDAN           N/A     85  46  25 SE10      29.96F
SIDNEY         SUNNY    N/A N/A N/A SE6       30.01F
WOLF POINT     SUNNY     82  49  31 S6        30.00F
MALTA            N/A     84  52  33 E8        29.93F
POPLAR           N/A     81  46  30 SE6       30.01F
SCOBEY           N/A     77  48  35 S2        30.02F
$$

MTZ028>42-056>058-031900-
SOUTHCENTRAL AND SOUTHEAST MONTANA

CITY           SKY/WX    TMP DP  RH WIND       PRES   REMARKS
BAKER          SUNNY     83  49  30 VRB7      30.03F
BILLINGS       PTSUNNY   78  49  35 VRB6      29.99F
LIVINGSTON     PTSUNNY   79  44  28 E15       30.01F
MILES CITY     SUNNY     85  50  29 SE13      29.97F
FORSYTH          N/A     84  48  28 E14       29.95F
LAUREL           N/A     78  48  34 NE5       29.98F
ROUNDUP          N/A     83  47  28 NE7       29.90F
$$

REGIONAL REPORTS...DAKOTAS

CITY           SKY/WX    TMP DP  RH WIND       PRES   REMARKS
WILLISTON      SUNNY     77  47  34 VRB6      30.03F
MINOT          SUNNY     76  45  33 W9        30.01S
DICKINSON      SUNNY     76  48  37 E5        30.02F
CROSBY         FAIR      75  46  35 NW7       30.03F
BISMARCK       SUNNY     77  50  38 W9        30.02F
GRAND FORKS    MOSUNNY   74  51  44 NW14G21   29.93F
FARGO          SUNNY     77  46  33 N18       29.94F
BUFFALO SD       N/A     81  51  35 SE12      29.98F
RAPID CITY     SUNNY     79  57  46 E12       30.04F
$$

REGIONAL REPORTS...WYOMING/IDAHO/WASHINGTON

CITY           SKY/WX    TMP DP  RH WIND       PRES   REMARKS
GILLETTE       SUNNY     82  55  39 E9G20     30.05F
SHERIDAN       MOSUNNY   87  53  31 SE13G18   29.99F
BUFFALO WY     MOSUNNY   85  50  29 SE13G21   30.08S
CODY           CLOUDY    73  52  46 NE5       30.06F
YELLOWSTONE LA   N/A     65  45  48 SE5       30.26S
IDAHO FALLS    CLOUDY    76  51  41 S13       30.05R
SALMON         PTSUNNY   77  39  25 CALM      29.89F
BOISE          CLOUDY    85  47  26 E6        29.93S
SPOKANE        CLOUDY    80  40  23 SW12      29.84R
$$

REGIONAL REPORTS...ALBERTA

CITY           SKY/WX    TMP DP  RH WIND       PRES   REMARKS
EDMONTON       SUNNY     77  57  50 SE17G23   29.83F
CALGARY        CLOUDY    77  48  36 SW8       29.88F
LETHBRIDGE     PTSUNNY   79  54  41 E6        29.88F
MEDICINE HAT   CLOUDY    86  50  28 SE9       29.87F
WATERTON GATE    N/A     82  50  32 NE3         N/A
CARDSTON         N/A     81  50  34 NW1         N/A
MILK RIVER       N/A     79  50  36 S13         N/A
ONEFOUR          N/A     81  46  30 E14G20      N/A
$$

REGIONAL REPORTS...SASKATCHEWAN

CITY           SKY/WX    TMP DP  RH WIND       PRES   REMARKS
SWIFT CURRENT  SUNNY     77  52  41 S13G21    30.00F
REGINA         PTSUNNY   79  52  38 W3        30.02F
SASKATOON      PTSUNNY   77  46  33 VRB3      30.01F
CYPRESS HILLS    N/A     72  48  43 SE12G17     N/A
VAL MARIE        N/A     79  48  34 S10         N/A
ROCKGLEN         N/A     73  50  43 E7          N/A
$$



USA.gov is the U.S. government's official web portal to all federal, state and local government web resources and services.